| time (UTC) | temp F | wind direction | speed MPH | gust MPH | rain 1hr in | rain 24hr in | rain mn in | humidity % | barometer mb |
| 20260905151536 | 72 | 346 | 1.0 | 8.0 | 0.00 | 0.00 | 0.00 | 72 | 1014.1 |
| 20260905150036 | 72 | 333 | 4.0 | 9.0 | 0.00 | 0.00 | 0.00 | 70 | 1014.1 |
| 20260905144535 | 72 | 335 | 1.0 | 8.0 | 0.00 | 0.00 | 0.00 | 73 | 1014.1 |
| 20260905143037 | 73 | 303 | 1.0 | 8.0 | 0.00 | 0.00 | 0.00 | 74 | 1013.9 |
| 20260905141526 | 73 | 287 | 2.0 | 9.0 | 0.00 | 0.00 | 0.00 | 71 | 1014.1 |
| 20260905140021 | 71 | 249 | 1.0 | 7.0 | 0.00 | 0.00 | 0.00 | 78 | 1014.1 |
| 20260905134520 | 70 | 355 | 1.0 | 7.0 | 0.00 | 0.00 | 0.00 | 82 | 1014.1 |
| 20260905133012 | 67 | 296 | 1.0 | 6.0 | 0.00 | 0.00 | 0.00 | 89 | 1014.0 |
| 20260905131512 | 64 | 329 | 2.0 | 6.0 | 0.00 | 0.00 | 0.00 | 96 | 1014.0 |
| 20260905130003 | 63 | 325 | 1.0 | 5.0 | 0.00 | 0.00 | 0.00 | 98 | 1014.1 |
| 20260905124501 | 63 | 308 | 0.0 | 5.0 | 0.00 | 0.00 | 0.00 | 98 | 1014.1 |
| 20260905123104 | 62 | 346 | 1.0 | 5.0 | 0.00 | 0.00 | 0.00 | 98 | 1014.1 |
| 20260905121559 | 60 | 302 | 1.0 | 4.0 | 0.00 | 0.00 | 0.00 | 98 | 1014.2 |
| 20260905114554 | 58 | 214 | 0.0 | 0.0 | 0.00 | 0.00 | 0.00 | 96 | 1014.2 |
| 20260905113051 | 58 | 214 | 0.0 | 0.0 | 0.00 | 0.00 | 0.00 | 96 | 1014.0 |
| 20260905111616 | 58 | 214 | 0.0 | 1.0 | 0.00 | 0.00 | 0.00 | 96 | 1013.7 |
| 20260905110043 | 58 | 214 | 0.0 | 0.0 | 0.00 | 0.00 | 0.00 | 96 | 1013.4 |
| 20260905104540 | 58 | 214 | 0.0 | 0.0 | 0.00 | 0.00 | 0.00 | 96 | 1013.2 |
| 20260905103040 | 58 | 214 | 0.0 | 0.0 | 0.00 | 0.00 | 0.00 | 96 | 1013.2 |
| 20260905101544 | 59 | 214 | 0.0 | 0.0 | 0.00 | 0.00 | 0.00 | 96 | 1013.2 |
| 20260905100138 | 59 | 214 | 0.0 | 0.0 | 0.00 | 0.00 | 0.00 | 96 | 1013.3 |
| 20260905094537 | 59 | 214 | 0.0 | 0.0 | 0.00 | 0.00 | 0.00 | 96 | 1013.1 |
| 20260905093040 | 59 | 214 | 0.0 | 0.0 | 0.00 | 0.00 | 0.00 | 96 | 1013.0 |
| 20260905091535 | 59 | 214 | 0.0 | 0.0 | 0.00 | 0.00 | 0.00 | 96 | 1013.0 |
| 20260905090036 | 60 | 214 | 0.0 | 0.0 | 0.00 | 0.00 | 0.00 | 96 | 1012.9 |
| 20260905084532 | 60 | 214 | 0.0 | 0.0 | 0.00 | 0.00 | 0.00 | 96 | 1012.7 |
| 20260905083037 | 60 | 214 | 0.0 | 0.0 | 0.00 | 0.00 | 0.00 | 95 | 1012.5 |
| 20260905081532 | 60 | 214 | 0.0 | 0.0 | 0.00 | 0.00 | 0.00 | 95 | 1012.4 |
| 20260905080041 | 60 | 214 | 0.0 | 0.0 | 0.00 | 0.00 | 0.00 | 95 | 1012.5 |
| 20260905074528 | 60 | 214 | 0.0 | 0.0 | 0.00 | 0.00 | 0.00 | 95 | 1012.6 |
| 20260905073028 | 60 | 214 | 0.0 | 0.0 | 0.00 | 0.00 | 0.00 | 95 | 1012.7 |
| 20260905071531 | 60 | 214 | 0.0 | 0.0 | 0.00 | 0.00 | 0.00 | 95 | 1012.7 |
| 20260905070028 | 61 | 214 | 0.0 | 0.0 | 0.00 | 0.00 | 0.00 | 95 | 1012.8 |
| 20260905064528 | 61 | 214 | 0.0 | 0.0 | 0.00 | 0.00 | 0.00 | 95 | 1013.0 |
| 20260905063021 | 61 | 214 | 0.0 | 0.0 | 0.00 | 0.00 | 0.00 | 95 | 1013.0 |
| 20260905061519 | 61 | 214 | 0.0 | 0.0 | 0.00 | 0.00 | 0.00 | 94 | 1013.1 |
| 20260905060030 | 61 | 214 | 0.0 | 0.0 | 0.00 | 0.00 | 0.00 | 94 | 1013.1 |
| 20260905054516 | 61 | 214 | 0.0 | 0.0 | 0.00 | 0.00 | 0.00 | 93 | 1013.2 |
| 20260905053116 | 61 | 214 | 0.0 | 0.0 | 0.00 | 0.00 | 0.00 | 93 | 1013.3 |
| 20260905051513 | 62 | 214 | 0.0 | 0.0 | 0.00 | 0.00 | 0.00 | 93 | 1013.3 |
| 20260905050011 | 62 | 214 | 0.0 | 0.0 | 0.00 | 0.00 | 0.00 | 92 | 1013.3 |
| 20260905044509 | 63 | 214 | 0.0 | 0.0 | 0.00 | 0.00 | 0.00 | 92 | 1013.3 |
| 20260905043007 | 63 | 214 | 0.0 | 0.0 | 0.00 | 0.00 | 0.00 | 92 | 1013.3 |
| 20260905041505 | 64 | 214 | 0.0 | 0.0 | 0.00 | 0.00 | 0.00 | 92 | 1013.3 |
| 20260905040001 | 64 | 214 | 0.0 | 0.0 | 0.00 | 0.00 | 0.00 | 92 | 1013.2 |
| 20260905034604 | 65 | 214 | 0.0 | 0.0 | 0.00 | 0.00 | 0.00 | 91 | 1013.3 |
| 20260905033103 | 66 | 214 | 0.0 | 0.0 | 0.00 | 0.00 | 0.00 | 92 | 1013.4 |
| 20260905031602 | 66 | 214 | 0.0 | 0.0 | 0.00 | 0.00 | 0.00 | 92 | 1013.2 |
| 20260905030121 | 67 | 214 | 0.0 | 1.0 | 0.00 | 0.00 | 0.00 | 93 | 1013.1 |
| 20260905024559 | 67 | 214 | 0.0 | 2.0 | 0.00 | 0.00 | 0.00 | 93 | 1013.2 |
| 20260905023058 | 68 | 214 | 0.0 | 0.0 | 0.00 | 0.00 | 0.00 | 92 | 1013.3 |
| 20260905021558 | 68 | 214 | 0.0 | 0.0 | 0.00 | 0.00 | 0.00 | 92 | 1013.1 |
| 20260905020106 | 68 | 214 | 0.0 | 0.0 | 0.00 | 0.00 | 0.00 | 93 | 1013.2 |
| 20260905014556 | 68 | 214 | 0.0 | 0.0 | 0.00 | 0.06 | 0.00 | 93 | 1013.2 |
| 20260905013056 | 69 | 214 | 0.0 | 0.0 | 0.00 | 0.06 | 0.00 | 92 | 1013.2 |
| 20260905011555 | 69 | 213 | 0.0 | 1.0 | 0.00 | 0.06 | 0.00 | 92 | 1013.1 |
| 20260905004610 | 69 | 214 | 0.0 | 0.0 | 0.00 | 0.06 | 0.00 | 91 | 1013.2 |
| 20260905003054 | 69 | 214 | 0.0 | 0.0 | 0.00 | 0.06 | 0.00 | 90 | 1013.1 |
| 20260905001553 | 70 | 214 | 0.0 | 2.0 | 0.00 | 0.06 | 0.00 | 90 | 1013.0 |
| 20260905000053 | 70 | 214 | 0.0 | 1.0 | 0.00 | 0.06 | 0.00 | 89 | 1013.0 |
| 20260904234552 | 71 | 214 | 0.0 | 0.0 | 0.00 | 0.06 | 0.00 | 89 | 1013.0 |
| 20260904233057 | 71 | 214 | 0.0 | 1.0 | 0.00 | 0.06 | 0.00 | 88 | 1012.8 |
| 20260904231551 | 72 | 214 | 0.0 | 1.0 | 0.00 | 0.06 | 0.00 | 87 | 1012.8 |
| 20260904230051 | 72 | 214 | 0.0 | 1.0 | 0.00 | 0.06 | 0.00 | 87 | 1012.9 |
| 20260904224552 | 72 | 214 | 0.0 | 1.0 | 0.00 | 0.06 | 0.00 | 87 | 1012.6 |
| 20260904223151 | 72 | 214 | 0.0 | 2.0 | 0.00 | 0.06 | 0.00 | 86 | 1012.5 |
| 20260904221555 | 72 | 214 | 0.0 | 2.0 | 0.00 | 0.06 | 0.00 | 86 | 1012.3 |
| 20260904220049 | 72 | 214 | 0.0 | 1.0 | 0.00 | 0.06 | 0.00 | 85 | 1012.1 |
| 20260904214549 | 72 | 214 | 0.0 | 0.0 | 0.00 | 0.06 | 0.00 | 85 | 1012.0 |
| 20260904213047 | 72 | 214 | 0.0 | 1.0 | 0.00 | 0.06 | 0.00 | 85 | 1011.8 |
| 20260904211547 | 72 | 214 | 0.0 | 1.0 | 0.00 | 0.06 | 0.00 | 83 | 1011.9 |
| 20260904210051 | 72 | 214 | 0.0 | 2.0 | 0.00 | 0.06 | 0.00 | 81 | 1012.2 |
| 20260904204542 | 73 | 214 | 0.0 | 3.0 | 0.00 | 0.06 | 0.00 | 79 | 1012.6 |
| 20260904203043 | 74 | 220 | 0.0 | 2.0 | 0.00 | 0.06 | 0.00 | 79 | 1012.6 |
| 20260904201540 | 75 | 220 | 0.0 | 2.0 | 0.00 | 0.06 | 0.00 | 76 | 1012.7 |
| 20260904200039 | 74 | 220 | 0.0 | 2.0 | 0.00 | 0.06 | 0.00 | 76 | 1012.8 |
| 20260904194539 | 74 | 219 | 1.0 | 4.0 | 0.00 | 0.06 | 0.00 | 76 | 1012.9 |
| 20260904193038 | 74 | 236 | 0.0 | 5.0 | 0.00 | 0.06 | 0.00 | 76 | 1013.1 |
| 20260904191538 | 74 | 188 | 0.0 | 5.0 | 0.00 | 0.06 | 0.00 | 75 | 1013.4 |
| 20260904190039 | 74 | 206 | 0.0 | 7.0 | 0.00 | 0.06 | 0.00 | 75 | 1013.5 |
| 20260904184537 | 75 | 194 | 1.0 | 7.0 | 0.00 | 0.06 | 0.00 | 73 | 1013.9 |
| 20260904183035 | 75 | 219 | 3.0 | 8.0 | 0.00 | 0.06 | 0.00 | 71 | 1014.1 |
| 20260904181535 | 76 | 261 | 0.0 | 6.0 | 0.00 | 0.06 | 0.00 | 70 | 1014.0 |
| 20260904180033 | 78 | 170 | 2.0 | 6.0 | 0.00 | 0.06 | 0.00 | 67 | 1014.0 |
| 20260904174533 | 78 | 225 | 2.0 | 9.0 | 0.00 | 0.06 | 0.00 | 68 | 1014.0 |
| 20260904173033 | 77 | 194 | 2.0 | 8.0 | 0.00 | 0.06 | 0.00 | 72 | 1014.1 |
| 20260904171542 | 77 | 166 | 0.0 | 7.0 | 0.00 | 0.06 | 0.00 | 70 | 1014.3 |
| 20260904170032 | 76 | 186 | 3.0 | 8.0 | 0.00 | 0.06 | 0.00 | 68 | 1014.5 |
| 20260904164531 | 78 | 152 | 2.0 | 8.0 | 0.00 | 0.06 | 0.00 | 73 | 1014.7 |
| 20260904163031 | 78 | 181 | 1.0 | 8.0 | 0.00 | 0.06 | 0.00 | 70 | 1014.7 |
| 20260904161534 | 78 | 124 | 2.0 | 5.0 | 0.00 | 0.06 | 0.00 | 70 | 1014.9 |
| 20260904160024 | 77 | 284 | 1.0 | 4.0 | 0.00 | 0.06 | 0.00 | 68 | 1015.1 |
| 20260904154521 | 77 | 260 | 0.0 | 7.0 | 0.00 | 0.06 | 0.00 | 69 | 1014.7 |
| 20260904153022 | 77 | 206 | 1.0 | 4.0 | 0.00 | 0.06 | 0.00 | 67 | 1014.5 |